Location: ??
(35.4824°N, 139.4679°E)
Time: 08:24:33
(UTC+00:00)

SL-19 R/B - Pass Details

Date: 29 October 2020
Orbit: 358 x 807 km, 99.4° (Epoch: 02 December)

Event Time Altitude Azimuth Distance (km) Brightness Sun altitude
Rises 20:00:44 0° 3° (N) 2,198 7.4 -13.0°
Reaches altitude 10° 20:02:43 10° 353° (N) 1,362 6.2 -12.6°
Maximum altitude 20:05:19 32° 287° (WNW) 681 4.2 -12.1°
Drops below altitude 10° 20:08:03 10° 222° (SW) 1,443 6.1 -11.5°
Sets 20:10:13 0° 212° (SSW) 2,356 7.3 -11.1°
